User: anonymous   Login
Location: Unspecified
(0.0000°N, 0.0000°E)
Time: 20:52:07
(UTC+00:00)
Language:

FEDSAT - Orbit

View from above orbital plane
View from above orbital plane
View from above satellite
View from above satellite

Ground track
Ground track

The orbit data is extracted from the following two-line orbital elements,

1 27598U 02056B   18267.90951205 -.00000010 +00000-0 +12927-4 0  9996
2 27598 098.4921 214.8325 0008450 324.0148 036.0464 14.28664408822682
Epoch (UTC): 24 September 2018 21:49:41
Eccentricity: 0.0008450
inclination: 98.4921°
perigee height: 790 km
apogee height: 802 km
right ascension of ascending node: 214.8325°
argument of perigee: 324.0148°
revolutions per day: 14.28664408
mean anomaly at epoch: 36.0464°
orbit number at epoch: 82268

The dashed part of the orbit path shows where the satellite is in the earth's shadow,  

DLR